Change the Weather History Date:

Monday, October 15, 2012

  Actual Average Record
Temperature  
Mean Temperature 57 °F -  
Max Temperature 67 °F 63 °F 80 °F (2008)
Min Temperature 47 °F 43 °F 32 °F (2006)
Degree Days  
Heating Degree Days 8    
Growing Degree Days 7 (Base 50)    
Moisture  
Dew Point 44 °F    
Average Humidity 64    
Maximum Humidity 83    
Minimum Humidity 48    
Precipitation  
Precipitation 0.00 in - - ()
Sea Level Pressure  
Sea Level Pressure 29.85 in    
Wind  
Wind Speed 12 mph (West)    
Max Wind Speed 23 mph    
Max Gust Speed 30 mph    
Visibility 10 miles    
Events Rain    
Averages and records for this station are not official NWS values.
T = Trace of Precipitation, MM = Missing Value Source: NWS Daily Summary

Daily Weather History Graph

Daily Weather History Graph

Search for Another Location

Airport or City:

Trip Planner

Search our weather history database for the weather conditions in past years. The results will help you decide how hot, cold, wet, or windy it might be!

Date:

Astronomy

Oct. 15, 2012 Rise Set
Actual Time 7:42 AM EDT 6:51 PM EDT
Civil Twilight 7:15 AM EDT 7:18 PM EDT
Nautical Twilight 6:43 AM EDT 7:50 PM EDT
Astronomical Twilight 6:12 AM EDT 8:21 PM EDT
Moon 7:51 AM EDT (10/15) 6:50 PM EDT (10/15)
Length of Visible Light 12h 03m
Length of Day
11h 09m
New Moon, 0% of the Moon is Illuminated
Oct 15
New Moon
Oct 21
First Quarter
Oct 29
Full
Nov 6
Last Quarter
Nov 13
New

Hourly Weather History & Observations

Time (EDT) Temp. Dew Point Humidity Pressure Visibility Wind Dir Wind Speed Gust Speed Precip Events Conditions
12:15 AM 67.6 °F 56.3 °F 67% 29.73 in 10.0 mi West 13.8 mph 20.7 mph N/A   Overcast
12:35 AM 64.9 °F 52.2 °F 63% 29.73 in 10.0 mi West 16.1 mph 27.6 mph N/A   Overcast
12:55 AM 62.4 °F 51.8 °F 68% 29.74 in 10.0 mi West 13.8 mph 19.6 mph N/A   Overcast
1:15 AM 62.2 °F 52.2 °F 70% 29.74 in 10.0 mi West 16.1 mph 21.9 mph N/A   Overcast
1:35 AM 62.1 °F 52.5 °F 71% 29.75 in 10.0 mi West 16.1 mph 23.0 mph N/A   Overcast
1:55 AM 61.7 °F 50.9 °F 68% 29.76 in 10.0 mi West 13.8 mph 21.9 mph N/A   Overcast
2:15 AM 60.8 °F 47.7 °F 62% 29.78 in 10.0 mi West 23.0 mph 29.9 mph N/A   Overcast
2:35 AM 59.7 °F 46.0 °F 61% 29.78 in 10.0 mi West 16.1 mph 23.0 mph N/A   Overcast
2:55 AM 59.4 °F 45.1 °F 59% 29.78 in 10.0 mi West 12.7 mph 25.3 mph N/A   Overcast
3:15 AM 58.6 °F 45.5 °F 62% 29.78 in 10.0 mi West 11.5 mph - N/A   Mostly Cloudy
3:35 AM 57.9 °F 46.2 °F 65% 29.78 in 10.0 mi West 13.8 mph 18.4 mph N/A   Mostly Cloudy
3:55 AM 57.4 °F 45.5 °F 65% 29.78 in 10.0 mi WNW 11.5 mph 17.3 mph N/A   Overcast
4:15 AM 56.7 °F 44.1 °F 63% 29.78 in 10.0 mi WNW 9.2 mph 16.1 mph N/A   Mostly Cloudy
4:35 AM 55.9 °F 43.5 °F 63% 29.78 in 10.0 mi West 5.8 mph - N/A   Mostly Cloudy
4:55 AM 55.0 °F 44.1 °F 67% 29.79 in 10.0 mi SW 3.5 mph - N/A   Mostly Cloudy
5:15 AM 54.5 °F 44.8 °F 70% 29.80 in 10.0 mi SW 5.8 mph - N/A   Overcast
5:55 AM 55.2 °F 45.0 °F 68% 29.80 in 10.0 mi WSW 8.1 mph - N/A   Overcast
6:15 AM 55.4 °F 45.1 °F 68% 29.80 in 10.0 mi West 9.2 mph - N/A   Overcast
6:55 AM 55.6 °F 45.0 °F 67% 29.80 in 10.0 mi WNW 10.4 mph 18.4 mph N/A   Overcast
7:15 AM 55.8 °F 43.7 °F 64% 29.80 in 10.0 mi West 12.7 mph - N/A   Overcast
7:35 AM 55.2 °F 43.2 °F 64% 29.81 in 10.0 mi WSW 8.1 mph - N/A   Overcast
7:55 AM 54.7 °F 43.5 °F 66% 29.81 in 10.0 mi West 8.1 mph - N/A   Overcast
8:15 AM 54.7 °F 43.5 °F 66% 29.81 in 10.0 mi West 8.1 mph - N/A   Overcast
8:35 AM 54.7 °F 43.9 °F 67% 29.81 in 10.0 mi West 4.6 mph - N/A Rain Light Rain
8:55 AM 54.5 °F 44.8 °F 70% 29.81 in 10.0 mi West 5.8 mph - N/A   Overcast
9:15 AM 54.7 °F 45.3 °F 71% 29.82 in 10.0 mi WSW 9.2 mph - N/A   Overcast
9:35 AM - - N/A% 29.82 in 5.0 mi WSW 6.9 mph - N/A Rain Rain
9:55 AM 53.4 °F 48.4 °F 83% 29.82 in 7.0 mi WSW 4.6 mph - N/A   Overcast
10:15 AM 53.8 °F 48.7 °F 83% 29.83 in 10.0 mi West 9.2 mph - N/A   Overcast
10:35 AM 54.1 °F 48.6 °F 81% 29.83 in 7.0 mi West 11.5 mph - N/A Rain Rain
10:55 AM 53.8 °F 48.6 °F 82% 29.83 in 10.0 mi West 12.7 mph 17.3 mph N/A   Overcast
11:15 AM 54.9 °F 48.2 °F 78% 29.84 in 10.0 mi West 17.3 mph 21.9 mph N/A   Overcast
11:35 AM 55.0 °F 47.3 °F 75% 29.85 in 10.0 mi West 12.7 mph 17.3 mph N/A   Overcast
11:55 AM 55.2 °F 45.7 °F 70% 29.85 in 10.0 mi West 12.7 mph 18.4 mph N/A   Overcast
12:15 PM 55.0 °F 45.1 °F 69% 29.86 in 10.0 mi West 13.8 mph - N/A   Overcast
12:35 PM 55.2 °F 45.0 °F 68% 29.86 in 10.0 mi West 16.1 mph 20.7 mph N/A   Overcast
12:55 PM 54.5 °F 44.1 °F 68% 29.86 in 10.0 mi West 16.1 mph 23.0 mph N/A   Overcast
1:15 PM 53.6 °F 44.1 °F 70% 29.86 in 10.0 mi West 10.4 mph - N/A   Overcast
1:35 PM 54.5 °F 43.0 °F 65% 29.86 in 10.0 mi West 16.1 mph 21.9 mph N/A   Overcast
1:55 PM 55.2 °F 42.6 °F 63% 29.86 in 10.0 mi West 13.8 mph 19.6 mph N/A   Overcast
2:15 PM 55.0 °F 42.4 °F 63% 29.86 in 10.0 mi West 12.7 mph - N/A   Overcast
2:35 PM 55.0 °F 41.9 °F 61% 29.87 in 10.0 mi West 12.7 mph - N/A   Overcast
2:55 PM 55.0 °F 42.1 °F 62% 29.87 in 10.0 mi WNW 17.3 mph 21.9 mph N/A Rain Light Rain
3:15 PM 54.1 °F 42.8 °F 66% 29.87 in 10.0 mi West 17.3 mph 23.0 mph N/A   Overcast
3:35 PM 54.1 °F 42.8 °F 66% 29.87 in 10.0 mi West 12.7 mph - N/A   Overcast
3:55 PM 55.2 °F 42.6 °F 63% 29.88 in 10.0 mi West 15.0 mph 18.4 mph N/A   Overcast
4:15 PM 56.3 °F 41.9 °F 59% 29.88 in 10.0 mi West 16.1 mph 21.9 mph N/A   Overcast
4:35 PM 57.2 °F 40.6 °F 54% 29.89 in 10.0 mi West 13.8 mph 20.7 mph N/A   Overcast
4:55 PM 56.7 °F 40.3 °F 54% 29.89 in 10.0 mi West 12.7 mph 16.1 mph N/A   Overcast
5:15 PM 57.4 °F 40.1 °F 53% 29.90 in 10.0 mi West 11.5 mph 16.1 mph N/A   Overcast
5:35 PM 57.6 °F 38.8 °F 50% 29.90 in 10.0 mi West 12.7 mph 18.4 mph N/A   Overcast
5:55 PM 57.6 °F 38.1 °F 48% 29.90 in 10.0 mi WNW 12.7 mph 19.6 mph N/A   Overcast
6:15 PM 57.2 °F 38.1 °F 49% 29.91 in 10.0 mi WNW 10.4 mph - N/A   Mostly Cloudy
6:35 PM 57.2 °F 38.7 °F 50% 29.91 in 10.0 mi West 8.1 mph - N/A   Mostly Cloudy
6:55 PM 56.7 °F 37.8 °F 49% 29.91 in 10.0 mi West 12.7 mph - N/A   Overcast
7:15 PM 54.9 °F 37.0 °F 51% 29.91 in 10.0 mi West 10.4 mph - N/A   Scattered Clouds
7:35 PM 53.4 °F 37.4 °F 55% 29.92 in 10.0 mi West 8.1 mph - N/A   Clear
7:55 PM 53.1 °F 37.9 °F 57% 29.93 in 10.0 mi West 9.2 mph - N/A   Mostly Cloudy
8:15 PM 53.8 °F 38.5 °F 56% 29.95 in 10.0 mi WNW 8.1 mph - N/A   Overcast
8:35 PM 54.1 °F 38.7 °F 56% 29.94 in 10.0 mi NW 5.8 mph - N/A   Overcast
8:55 PM 52.9 °F 38.7 °F 58% 29.94 in 10.0 mi NW 5.8 mph - N/A   Scattered Clouds
9:15 PM 51.6 °F 38.7 °F 61% 29.94 in 10.0 mi West 4.6 mph - N/A   Clear
9:35 PM 50.4 °F 38.8 °F 65% 29.94 in 10.0 mi West 4.6 mph - N/A   Clear
9:55 PM 49.1 °F 38.7 °F 67% 29.95 in 10.0 mi West 3.5 mph - N/A   Scattered Clouds
10:15 PM 47.3 °F 38.3 °F 71% 29.95 in 10.0 mi West 3.5 mph - N/A   Mostly Cloudy
10:35 PM 48.4 °F 39.0 °F 70% 29.95 in 10.0 mi NW 4.6 mph - N/A   Overcast
10:55 PM 50.5 °F 39.7 °F 66% 29.95 in 10.0 mi NW 5.8 mph - N/A   Overcast
11:15 PM 51.6 °F 40.1 °F 65% 29.95 in 10.0 mi NW 6.9 mph - N/A   Overcast
11:35 PM 52.0 °F 40.5 °F 65% 29.95 in 10.0 mi NW 4.6 mph - N/A   Overcast
11:55 PM 51.6 °F 40.5 °F 66% 29.95 in 10.0 mi NW 4.6 mph - N/A   Mostly Cloudy